{"data":{"norad_id":65294,"epoch":"2026-09-20T10:32:08.035296Z","epoch_age_seconds":122742,"freshness":"FRESH","line1":"1 65294U 25184X   26263.43898189  .00011245  00000+0  34998-3 0  9993","line2":"2 65294  97.2848 311.3833 0001048 108.2700 251.8657 15.33457261 60714","mean_motion":15.33457261,"eccentricity":0.0001048,"inclination_deg":97.2848,"raan_deg":311.3833,"arg_perigee_deg":108.27,"mean_anomaly_deg":251.8657,"bstar":0.00034998,"rev_number":6071,"period_min":93.905453814927,"perigee_km":464.78948075235,"apogee_km":466.22390847074,"semimajor_km":6843.6436946115,"source":"CELESTRAK","updated_at":"2026-09-21T09:00:35.568090Z"}}